Location: IoMAS Observatory
(54.1780°N, 4.6265°W)
Time: 10:18:19
(UTC+01:00)

ISS - Pass Details

Date: 02 December 2021
Orbit: 413 x 422 km, 51.6° (Epoch: 23 January)

Event Time Altitude Azimuth Distance (km) Brightness Sun altitude
Rises 19:22:58 0° 276° (W) 2,385 1.5 -19.9°
Reaches altitude 10° 19:25:11 10° 267° (W) 1,516 0.3 -20.2°
Maximum altitude 19:28:19 35° 201° (SSW) 705 -2.4 -20.6°
Enters shadow 19:28:56 32° 175° (S) 751 -2.5 -20.7°
